| time (UTC) | temp F | wind direction | speed MPH | gust MPH | rain 1hr in | rain 24hr in | rain mn in | humidity % | barometer mb |
| 20260506073006 | 56 | 292 | 5.0 | 11.0 | 0.00 | 0.00 | 0.00 | 41 | 1011.8 |
| 20260506071505 | 57 | 335 | 5.0 | 10.0 | 0.00 | 0.00 | 0.00 | 42 | 1011.6 |
| 20260506061505 | 54 | 328 | 4.0 | 14.0 | 0.00 | 0.00 | 0.00 | 46 | 1011.6 |
| 20260506044505 | 51 | 339 | 5.0 | 8.0 | 0.00 | 0.00 | 0.00 | 72 | 1011.1 |
| 20260506043005 | 50 | 342 | 3.0 | 6.0 | 0.00 | 0.00 | 0.00 | 72 | 1010.8 |
| 20260506040006 | 50 | 1 | 3.0 | 5.0 | 0.00 | 0.00 | 0.00 | 69 | 1010.7 |
| 20260506031505 | 51 | 1 | 2.0 | 7.0 | 0.00 | 0.00 | 0.00 | 64 | 1010.7 |
| 20260506030005 | 51 | 1 | 2.0 | 4.0 | 0.00 | 0.00 | 0.00 | 62 | 1010.6 |
| 20260506024505 | 51 | 1 | 1.0 | 3.0 | 0.00 | 0.00 | 0.00 | 61 | 1010.5 |
| 20260506023004 | 51 | 1 | 1.0 | 2.0 | 0.00 | 0.00 | 0.00 | 61 | 1010.4 |
| 20260506020005 | 52 | 1 | 2.0 | 4.0 | 0.00 | 0.00 | 0.00 | 61 | 1010.3 |
| 20260506014505 | 52 | 358 | 3.0 | 6.0 | 0.00 | 0.00 | 0.00 | 58 | 1010.1 |
| 20260506010005 | 52 | 1 | 2.0 | 5.0 | 0.00 | 0.00 | 0.00 | 54 | 1010.4 |
| 20260506004505 | 52 | 1 | 3.0 | 8.0 | 0.00 | 0.00 | 0.00 | 51 | 1010.1 |
| 20260506000004 | 52 | 327 | 2.0 | 4.0 | 0.00 | 0.00 | 0.00 | 44 | 1009.8 |
| 20260505234505 | 52 | 272 | 2.0 | 5.0 | 0.00 | 0.00 | 0.00 | 43 | 1010.3 |
| 20260505233004 | 53 | 316 | 2.0 | 4.0 | 0.00 | 0.00 | 0.00 | 41 | 1009.9 |
| 20260505230008 | 53 | 240 | 3.0 | 11.0 | 0.00 | 0.00 | 0.00 | 39 | 1009.8 |
| 20260505224507 | 53 | 245 | 4.0 | 8.0 | 0.00 | 0.00 | 0.00 | 38 | 1009.8 |
| 20260505220010 | 53 | 222 | 6.0 | 12.0 | 0.00 | 0.00 | 0.00 | 36 | 1009.4 |
| 20260505214507 | 54 | 247 | 7.0 | 11.0 | 0.00 | 0.00 | 0.00 | 36 | 1009.5 |
| 20260505213008 | 54 | 262 | 6.0 | 12.0 | 0.00 | 0.00 | 0.00 | 35 | 1009.5 |
| 20260505211507 | 55 | 209 | 6.0 | 10.0 | 0.00 | 0.00 | 0.00 | 35 | 1009.4 |
| 20260505210008 | 55 | 208 | 7.0 | 13.0 | 0.00 | 0.00 | 0.00 | 34 | 1009.7 |
| 20260505204507 | 55 | 188 | 7.0 | 11.0 | 0.00 | 0.00 | 0.00 | 34 | 1009.8 |
| 20260505203008 | 56 | 144 | 7.0 | 13.0 | 0.00 | 0.00 | 0.00 | 34 | 1009.9 |
| 20260505200007 | 57 | 209 | 6.0 | 11.0 | 0.00 | 0.00 | 0.00 | 33 | 1010.0 |
| 20260505194507 | 57 | 225 | 7.0 | 11.0 | 0.00 | 0.00 | 0.00 | 33 | 1010.0 |
| 20260505193007 | 58 | 165 | 6.0 | 11.0 | 0.00 | 0.00 | 0.00 | 33 | 1009.8 |
| 20260505191507 | 58 | 219 | 5.0 | 10.0 | 0.00 | 0.00 | 0.00 | 32 | 1009.8 |
| 20260505190007 | 59 | 204 | 5.0 | 11.0 | 0.00 | 0.00 | 0.00 | 32 | 1009.6 |
| 20260505183007 | 61 | 217 | 5.0 | 11.0 | 0.00 | 0.00 | 0.00 | 31 | 1009.8 |
| 20260505181507 | 62 | 166 | 6.0 | 11.0 | 0.00 | 0.00 | 0.00 | 27 | 1009.9 |
| 20260505180007 | 63 | 224 | 3.0 | 10.0 | 0.00 | 0.00 | 0.00 | 26 | 1009.9 |
| 20260505174507 | 63 | 225 | 3.0 | 7.0 | 0.00 | 0.00 | 0.00 | 25 | 1009.7 |
| 20260505173007 | 64 | 225 | 2.0 | 7.0 | 0.00 | 0.00 | 0.00 | 23 | 1009.7 |
| 20260505171507 | 65 | 225 | 2.0 | 4.0 | 0.00 | 0.00 | 0.00 | 23 | 1009.7 |
| 20260505170007 | 66 | 225 | 3.0 | 4.0 | 0.00 | 0.00 | 0.00 | 22 | 1009.8 |
| 20260505164507 | 68 | 166 | 2.0 | 5.0 | 0.00 | 0.00 | 0.00 | 22 | 1009.8 |
| 20260505163008 | 70 | 172 | 3.0 | 7.0 | 0.00 | 0.00 | 0.00 | 22 | 1010.2 |
| 20260505161507 | 73 | 190 | 4.0 | 15.0 | 0.00 | 0.00 | 0.00 | 21 | 1010.3 |
| 20260505153007 | 77 | 212 | 5.0 | 8.0 | 0.00 | 0.00 | 0.00 | 21 | 1010.3 |
| 20260505124506 | 76 | 192 | 6.0 | 11.0 | 0.00 | 0.00 | 0.00 | 22 | 1011.8 |
| 20260505121507 | 74 | 216 | 6.0 | 11.0 | 0.00 | 0.00 | 0.00 | 22 | 1012.2 |
| 20260505120006 | 74 | 250 | 5.0 | 12.0 | 0.00 | 0.00 | 0.00 | 22 | 1012.0 |
| 20260505114506 | 73 | 235 | 6.0 | 11.0 | 0.00 | 0.00 | 0.00 | 22 | 1012.0 |
| 20260505113006 | 73 | 243 | 6.0 | 11.0 | 0.00 | 0.00 | 0.00 | 22 | 1012.3 |
| 20260505101506 | 69 | 147 | 6.0 | 11.0 | 0.00 | 0.00 | 0.00 | 24 | 1012.7 |
| 20260505100006 | 69 | 169 | 5.0 | 9.0 | 0.00 | 0.00 | 0.00 | 24 | 1012.5 |
| 20260505094505 | 67 | 211 | 5.0 | 10.0 | 0.00 | 0.00 | 0.00 | 24 | 1012.5 |
| 20260505093006 | 67 | 255 | 4.0 | 11.0 | 0.00 | 0.00 | 0.00 | 25 | 1012.9 |
| 20260505091506 | 66 | 163 | 6.0 | 11.0 | 0.00 | 0.00 | 0.00 | 24 | 1012.9 |
| 20260505083005 | 62 | 165 | 4.0 | 9.0 | 0.00 | 0.00 | 0.00 | 26 | 1012.7 |
| 20260505080006 | 59 | 230 | 5.0 | 10.0 | 0.00 | 0.00 | 0.00 | 31 | 1012.7 |